EN

Hourly Weather Alsleben

Today, 17 January, Sunday

Time Temperature Precipitation Wind Pressure Humidity
00:00 -4°C° 0 mm 2 mps 755 mmHg 88%
01:00 -2°C° 0 mm 1 mps 754 mmHg 89%
02:00 -2°C° 0 mm 1 mps 754 mmHg 88%
03:00 -2°C° 0 mm 1 mps 753 mmHg 87%
04:00 -3°C° 0 mm 1 mps 753 mmHg 85%
05:00 -3°C° 0 mm 1 mps 753 mmHg 86%
06:00 -3°C° 0 mm 1 mps 753 mmHg 86%
07:00 -3°C° 0 mm 1 mps 753 mmHg 86%
08:00 -3°C° 0 mm 1 mps 753 mmHg 85%
09:00 -2°C° 0 mm 1 mps 754 mmHg 83%
10:00 -4°C° 0 mm 2 mps 754 mmHg 82%
11:00 -1°C° 0 mm 1 mps 754 mmHg 79%
12:00 -1°C° 0 mm 1 mps 754 mmHg 76%
13:00 0°C° 0 mm 1 mps 754 mmHg 74%
14:00 -1°C° 0 mm 1 mps 754 mmHg 76%
15:00 -1°C° 0 mm 1 mps 754 mmHg 79%
16:00 -1°C° 0 mm 1 mps 754 mmHg 82%
17:00 -4°C° 0 mm 2 mps 754 mmHg 83%
18:00 -4°C° 0 mm 2 mps 755 mmHg 84%
19:00 -4°C° 0 mm 2 mps 755 mmHg 86%
20:00 -4°C° 0 mm 2 mps 755 mmHg 87%
21:00 -4°C° 0 mm 2 mps 755 mmHg 88%
22:00 -4°C° 0 mm 2 mps 755 mmHg 89%
23:00 -4°C° 0 mm 2 mps 755 mmHg 91%

Tomorrow, 18 January, Monday

Time Temperature Precipitation Wind Pressure Humidity
00:00 -3°C° 0 mm 2 mps 755 mmHg 93%
01:00 -3°C° 0 mm 2 mps 755 mmHg 96%
02:00 -2°C° 0.3 mm 2 mps 755 mmHg 96%
03:00 -2°C° 0.3 mm 2 mps 754 mmHg 97%
04:00 -1°C° 0.3 mm 2 mps 754 mmHg 98%
05:00 0°C° 0.2 mm 3 mps 754 mmHg 97%
06:00 0°C° 0.2 mm 3 mps 754 mmHg 96%
07:00 0°C° 0.2 mm 4 mps 755 mmHg 96%
08:00 0°C° 0 mm 4 mps 755 mmHg 94%
09:00 0°C° 0 mm 4 mps 755 mmHg 92%
10:00 0°C° 0 mm 4 mps 755 mmHg 89%
11:00 0°C° 0 mm 4 mps 755 mmHg 89%
12:00 +1°C° 0 mm 4 mps 755 mmHg 88%
13:00 +1°C° 0 mm 4 mps 755 mmHg 87%
14:00 +1°C° 0.1 mm 5 mps 754 mmHg 88%
15:00 0°C° 0.1 mm 5 mps 754 mmHg 90%
16:00 0°C° 0.1 mm 5 mps 754 mmHg 92%
17:00 0°C° 0.1 mm 5 mps 754 mmHg 92%
18:00 0°C° 0.1 mm 5 mps 753 mmHg 93%
19:00 0°C° 0.1 mm 5 mps 753 mmHg 94%
20:00 0°C° 0.1 mm 5 mps 753 mmHg 94%
21:00 0°C° 0.1 mm 5 mps 753 mmHg 94%
22:00 0°C° 0.1 mm 5 mps 753 mmHg 95%
23:00 0°C° 0.1 mm 5 mps 753 mmHg 94%

Day after tomorrow, 19 January, Tuesday

Time Temperature Precipitation Wind Pressure Humidity
00:00 0°C° 0.1 mm 5 mps 752 mmHg 94%
01:00 0°C° 0.1 mm 5 mps 752 mmHg 94%
02:00 0°C° 0.1 mm 5 mps 752 mmHg 93%
03:00 -1°C° 0.1 mm 6 mps 751 mmHg 93%
04:00 -1°C° 0.1 mm 6 mps 751 mmHg 92%
05:00 -1°C° 0 mm 6 mps 750 mmHg 90%
06:00 0°C° 0 mm 5 mps 750 mmHg 89%
07:00 0°C° 0 mm 5 mps 749 mmHg 87%
08:00 -1°C° 0.3 mm 6 mps 748 mmHg 90%
09:00 -1°C° 0.3 mm 6 mps 748 mmHg 92%
10:00 -1°C° 0.3 mm 7 mps 747 mmHg 94%
11:00 0°C° 0.1 mm 7 mps 746 mmHg 93%
12:00 +1°C° 0.1 mm 6 mps 745 mmHg 92%
13:00 +2°C° 0.1 mm 6 mps 745 mmHg 91%
14:00 +2°C° 0.9 mm 6 mps 744 mmHg 91%
15:00 +2°C° 0.9 mm 6 mps 743 mmHg 92%
16:00 +2°C° 0.9 mm 6 mps 742 mmHg 92%
17:00 +3°C° 0.6 mm 7 mps 743 mmHg 90%
18:00 +4°C° 0.6 mm 7 mps 743 mmHg 89%
19:00 +5°C° 0.6 mm 8 mps 743 mmHg 87%
20:00 +5°C° 0 mm 8 mps 743 mmHg 86%
21:00 +4°C° 0 mm 8 mps 744 mmHg 85%
22:00 +4°C° 0 mm 8 mps 744 mmHg 84%
23:00 +4°C° 0 mm 8 mps 744 mmHg 84%

20 January, Wednesday

Time Temperature Precipitation Wind Pressure Humidity
00:00 +4°C° 0 mm 8 mps 744 mmHg 83%
01:00 +2°C° 0 mm 8 mps 744 mmHg 83%
02:00 +2°C° 0 mm 8 mps 744 mmHg 82%
03:00 +2°C° 0 mm 7 mps 744 mmHg 82%
04:00 +2°C° 0 mm 7 mps 744 mmHg 81%
05:00 +2°C° 0 mm 7 mps 744 mmHg 79%
06:00 +1°C° 0 mm 8 mps 743 mmHg 78%
07:00 +1°C° 0 mm 8 mps 743 mmHg 77%
08:00 +2°C° 0 mm 8 mps 743 mmHg 76%
09:00 +3°C° 0 mm 7 mps 743 mmHg 75%
10:00 +3°C° 0 mm 7 mps 743 mmHg 75%
11:00 +4°C° 0 mm 7 mps 743 mmHg 72%
12:00 +5°C° 0 mm 7 mps 743 mmHg 69%
13:00 +5°C° 0 mm 7 mps 743 mmHg 66%
14:00 +5°C° 0 mm 6 mps 743 mmHg 68%
15:00 +4°C° 0 mm 6 mps 743 mmHg 69%
16:00 +4°C° 0 mm 6 mps 742 mmHg 71%
17:00 +3°C° 0 mm 6 mps 742 mmHg 73%
18:00 +3°C° 0 mm 5 mps 742 mmHg 75%
19:00 +2°C° 0 mm 5 mps 742 mmHg 77%
20:00 +3°C° 0 mm 6 mps 742 mmHg 76%
21:00 +3°C° 0 mm 6 mps 742 mmHg 75%
22:00 +3°C° 0 mm 6 mps 742 mmHg 74%
23:00 +3°C° 0 mm 6 mps 742 mmHg 72%

21 January, Thursday

Time Temperature Precipitation Wind Pressure Humidity
00:00 +3°C° 0 mm 6 mps 741 mmHg 70%
01:00 +3°C° 0 mm 6 mps 741 mmHg 68%
02:00 +3°C° 0 mm 5 mps 741 mmHg 68%
03:00 +3°C° 0 mm 5 mps 740 mmHg 67%
04:00 +4°C° 0 mm 4 mps 740 mmHg 67%
05:00 +3°C° 0 mm 5 mps 740 mmHg 68%
06:00 +2°C° 0 mm 5 mps 739 mmHg 69%
07:00 +2°C° 0 mm 6 mps 739 mmHg 70%
08:00 +2°C° 0 mm 7 mps 739 mmHg 68%
09:00 +3°C° 0 mm 7 mps 738 mmHg 66%
10:00 +2°C° 0 mm 8 mps 738 mmHg 65%
11:00 +4°C° 0 mm 8 mps 738 mmHg 67%
12:00 +5°C° 0 mm 9 mps 738 mmHg 69%
13:00 +6°C° 0 mm 9 mps 739 mmHg 71%
14:00 +5°C° 0 mm 8 mps 739 mmHg 71%
15:00 +5°C° 0 mm 7 mps 739 mmHg 70%
16:00 +4°C° 0 mm 6 mps 739 mmHg 69%
17:00 +4°C° 0 mm 6 mps 739 mmHg 71%
18:00 +3°C° 0 mm 6 mps 739 mmHg 73%
19:00 +3°C° 0 mm 7 mps 739 mmHg 75%
20:00 +3°C° 0 mm 7 mps 739 mmHg 75%
21:00 +3°C° 0 mm 7 mps 739 mmHg 76%
22:00 +3°C° 0 mm 6 mps 739 mmHg 76%
23:00 +2°C° 0 mm 6 mps 739 mmHg 78%

22 January, Friday

Time Temperature Precipitation Wind Pressure Humidity
00:00 +2°C° 0 mm 6 mps 738 mmHg 80%
01:00 +2°C° 0 mm 5 mps 738 mmHg 82%
02:00 +2°C° 0 mm 5 mps 738 mmHg 83%
03:00 +2°C° 0 mm 5 mps 737 mmHg 85%
04:00 +3°C° 0 mm 4 mps 737 mmHg 86%
05:00 +3°C° 0.4 mm 5 mps 737 mmHg 86%
06:00 +3°C° 0.4 mm 5 mps 736 mmHg 87%
07:00 +4°C° 0.4 mm 6 mps 735 mmHg 87%
08:00 +4°C° 0.5 mm 7 mps 735 mmHg 84%
09:00 +4°C° 0.5 mm 8 mps 735 mmHg 81%
10:00 +5°C° 0.5 mm 9 mps 735 mmHg 77%
11:00 +5°C° 0 mm 8 mps 735 mmHg 76%
12:00 +6°C° 0 mm 7 mps 734 mmHg 75%
13:00 +8°C° 0 mm 6 mps 734 mmHg 74%
14:00 +6°C° 0.4 mm 5 mps 734 mmHg 81%
15:00 +5°C° 0.4 mm 5 mps 735 mmHg 87%
16:00 +3°C° 0.4 mm 4 mps 735 mmHg 93%
17:00 +3°C° 0.1 mm 4 mps 735 mmHg 91%
18:00 +3°C° 0.1 mm 3 mps 736 mmHg 89%
19:00 +3°C° 0.1 mm 2 mps 736 mmHg 87%
20:00 +2°C° 0 mm 3 mps 737 mmHg 88%
21:00 +2°C° 0 mm 3 mps 738 mmHg 88%
22:00 +1°C° 0 mm 3 mps 739 mmHg 88%
23:00 +1°C° 0 mm 3 mps 739 mmHg 89%
Show more